Location: Rosenheim
(47.8408°N, 12.2113°E)
Time: 05:00:04
(UTC+01:00)

ISS - Pass Details

Date: 13 November 2017
Orbit: 401 x 407 km, 51.6° (Epoch: 25 November)

Event Time Altitude Azimuth Distance (km) Brightness Sun altitude
Exits shadow 06:35:36 - 284° (WNW) 1,543 -1.6 -6.8°
Reaches altitude 10° 06:35:50 10° 282° (WNW) 1,456 -1.7 -6.7°
Maximum altitude 06:38:50 35° 215° (SW) 664 -2.9 -6.3°
Drops below altitude 10° 06:41:51 10° 147° (SSE) 1,449 -0.1 -5.8°
Sets 06:44:00 0° 138° (SE) 2,305 1.3 -5.5°
